| time (UTC) | temp C | wind direction | speed KPH | gust KPH | rain 1hr cm | rain 24hr cm | rain mn cm | humidity % | barometer mb |
| 20260510153623 | 23 | 118 | 6.4 | 14.5 | 0.00 | 2.72 | 0.00 | 91 | 1015.6 |
| 20260510152904 | 23 | 76 | 6.4 | 14.5 | 0.00 | 2.82 | 0.00 | 91 | 1015.6 |
| 20260510152403 | 23 | 77 | 6.4 | 14.5 | 0.00 | 2.82 | 0.00 | 91 | 1015.7 |
| 20260510151904 | 23 | 57 | 8.0 | 14.5 | 0.00 | 2.82 | 0.00 | 92 | 1015.7 |
| 20260510151630 | 23 | 98 | 8.0 | 12.9 | 0.00 | 2.82 | 0.00 | 92 | 1015.8 |
| 20260510150905 | 23 | 42 | 6.4 | 12.9 | 0.00 | 2.82 | 0.00 | 92 | 1015.9 |
| 20260510150626 | 23 | 52 | 6.4 | 12.9 | 0.00 | 2.82 | 0.00 | 93 | 1015.9 |
| 20260510145904 | 23 | 17 | 6.4 | 11.3 | 0.00 | 2.82 | 0.00 | 93 | 1016.0 |
| 20260510145404 | 23 | 42 | 6.4 | 11.3 | 0.00 | 2.82 | 0.00 | 92 | 1016.0 |
| 20260510145127 | 23 | 18 | 6.4 | 11.3 | 0.00 | 2.82 | 0.00 | 92 | 1016.0 |
| 20260510144856 | 22 | 22 | 6.4 | 12.9 | 0.00 | 2.82 | 0.00 | 93 | 1016.0 |
| 20260510143904 | 22 | 78 | 6.4 | 12.9 | 0.00 | 2.82 | 0.00 | 93 | 1016.0 |
| 20260510143403 | 22 | 43 | 6.4 | 11.3 | 0.00 | 2.82 | 0.00 | 93 | 1015.9 |
| 20260510143125 | 22 | 205 | 6.4 | 11.3 | 0.00 | 2.82 | 0.00 | 93 | 1015.9 |
| 20260510142404 | 22 | 54 | 6.4 | 11.3 | 0.00 | 2.82 | 0.00 | 94 | 1015.9 |
| 20260510142125 | 22 | 37 | 6.4 | 11.3 | 0.00 | 2.82 | 0.00 | 94 | 1015.8 |
| 20260510141403 | 22 | 70 | 4.8 | 11.3 | 0.00 | 2.82 | 0.00 | 94 | 1015.8 |
| 20260510140905 | 22 | 90 | 6.4 | 17.7 | 0.00 | 2.84 | 0.00 | 95 | 1015.8 |
| 20260510140404 | 22 | 87 | 11.3 | 17.7 | 0.00 | 2.92 | 0.00 | 95 | 1015.7 |
| 20260510135905 | 22 | 91 | 14.5 | 19.3 | 0.00 | 3.02 | 0.00 | 97 | 1015.7 |
| 20260510135403 | 22 | 77 | 14.5 | 19.3 | 0.00 | 3.10 | 0.00 | 98 | 1015.7 |
| 20260510134905 | 22 | 75 | 14.5 | 17.7 | 0.00 | 3.15 | 0.00 | 100 | 1015.8 |
| 20260510134404 | 21 | 90 | 12.9 | 17.7 | 0.00 | 3.17 | 0.00 | 100 | 1015.8 |
| 20260510133905 | 21 | 69 | 12.9 | 17.7 | 0.00 | 3.20 | 0.00 | 100 | 1015.8 |
| 20260510133403 | 21 | 80 | 11.3 | 17.7 | 0.00 | 3.23 | 0.00 | 100 | 1015.7 |
| 20260510132904 | 21 | 59 | 9.7 | 35.4 | 0.00 | 3.30 | 0.00 | 100 | 1015.7 |
| 20260510132404 | 21 | 49 | 11.3 | 37.0 | 0.00 | 3.48 | 0.00 | 100 | 1015.6 |
| 20260510131905 | 21 | 53 | 12.9 | 37.0 | 0.00 | 3.66 | 0.00 | 100 | 1015.5 |
| 20260510131403 | 20 | 57 | 11.3 | 35.4 | 0.00 | 3.91 | 0.00 | 99 | 1015.5 |
| 20260510130904 | 20 | 50 | 11.3 | 35.4 | 0.00 | 4.29 | 0.00 | 99 | 1015.4 |
| 20260510130404 | 20 | 55 | 12.9 | 33.8 | 0.00 | 4.47 | 0.00 | 99 | 1015.3 |
| 20260510125904 | 20 | 53 | 12.9 | 33.8 | 0.00 | 4.47 | 0.00 | 99 | 1015.1 |
| 20260510125403 | 20 | 45 | 12.9 | 33.8 | 0.00 | 4.47 | 0.00 | 99 | 1015.1 |
| 20260510124904 | 20 | 51 | 16.1 | 38.6 | 0.00 | 4.47 | 0.00 | 99 | 1015.0 |
| 20260510124628 | 20 | 46 | 17.7 | 38.6 | 0.00 | 4.47 | 0.00 | 99 | 1015.0 |
| 20260510123905 | 20 | 48 | 16.1 | 37.0 | 0.00 | 4.47 | 0.00 | 99 | 1014.9 |
| 20260510123404 | 20 | 47 | 16.1 | 37.0 | 0.00 | 4.47 | 0.00 | 99 | 1014.8 |
| 20260510122904 | 20 | 45 | 11.3 | 35.4 | 0.00 | 4.47 | 0.00 | 99 | 1014.7 |
| 20260510122403 | 20 | 48 | 9.7 | 27.4 | 0.00 | 4.47 | 0.00 | 99 | 1014.6 |
| 20260510121905 | 20 | 46 | 9.7 | 27.4 | 0.00 | 4.47 | 0.00 | 99 | 1014.6 |
| 20260510121630 | 20 | 59 | 9.7 | 27.4 | 0.00 | 4.47 | 0.00 | 99 | 1014.5 |
| 20260510120904 | 20 | 54 | 8.0 | 29.0 | 0.00 | 4.47 | 0.00 | 99 | 1014.4 |
| 20260510120403 | 20 | 53 | 8.0 | 29.0 | 0.00 | 4.47 | 0.00 | 99 | 1014.4 |
| 20260510115904 | 20 | 47 | 9.7 | 29.0 | 0.00 | 4.47 | 0.00 | 99 | 1014.4 |
| 20260510115842 | 20 | 53 | 8.0 | 32.2 | 0.00 | 4.47 | 0.00 | 99 | 1014.3 |
| 20260510114904 | 20 | 47 | 8.0 | 32.2 | 0.00 | 4.47 | 0.00 | 99 | 1014.2 |
| 20260510114403 | 20 | 48 | 8.0 | 12.9 | 0.00 | 4.47 | 0.00 | 99 | 1014.2 |
| 20260510113904 | 20 | 47 | 8.0 | 25.7 | 0.00 | 4.47 | 0.00 | 99 | 1014.1 |
| 20260510113403 | 20 | 50 | 9.7 | 25.7 | 0.00 | 4.47 | 0.00 | 99 | 1013.9 |
| 20260510112904 | 20 | 51 | 9.7 | 17.7 | 0.00 | 4.47 | 0.00 | 99 | 1013.7 |
| 20260510112403 | 20 | 54 | 9.7 | 17.7 | 0.00 | 4.47 | 0.00 | 99 | 1013.7 |
| 20260510111904 | 20 | 74 | 9.7 | 17.7 | 0.00 | 4.47 | 0.00 | 99 | 1013.6 |
| 20260510111403 | 20 | 47 | 8.0 | 12.9 | 0.00 | 4.47 | 0.00 | 99 | 1013.5 |
| 20260510110904 | 20 | 57 | 8.0 | 12.9 | 0.00 | 4.47 | 0.00 | 99 | 1013.5 |
| 20260510110403 | 20 | 52 | 8.0 | 12.9 | 0.00 | 4.47 | 0.00 | 99 | 1013.5 |
| 20260510105904 | 20 | 57 | 8.0 | 12.9 | 0.00 | 4.47 | 0.00 | 99 | 1013.3 |
| 20260510105402 | 20 | 56 | 8.0 | 12.9 | 0.00 | 4.47 | 0.00 | 99 | 1013.3 |
| 20260510104904 | 20 | 58 | 6.4 | 12.9 | 0.00 | 4.47 | 0.00 | 99 | 1013.2 |
| 20260510104624 | 20 | 53 | 8.0 | 11.3 | 0.00 | 4.47 | 0.00 | 99 | 1013.1 |
| 20260510103905 | 20 | 46 | 8.0 | 12.9 | 0.00 | 4.47 | 0.00 | 99 | 1012.9 |
| 20260510103622 | 20 | 57 | 8.0 | 12.9 | 0.00 | 4.47 | 0.00 | 99 | 1012.8 |
| 20260510102905 | 20 | 47 | 8.0 | 11.3 | 0.00 | 4.47 | 0.00 | 99 | 1012.7 |
| 20260510102844 | 20 | 48 | 8.0 | 11.3 | 0.00 | 4.47 | 0.00 | 99 | 1012.8 |
| 20260510101901 | 20 | 45 | 6.4 | 11.3 | 0.00 | 4.47 | 0.00 | 99 | 1012.7 |
| 20260510101401 | 20 | 43 | 6.4 | 11.3 | 0.00 | 4.47 | 0.00 | 99 | 1012.6 |
| 20260510100901 | 20 | 58 | 8.0 | 12.9 | 0.00 | 4.47 | 0.00 | 99 | 1012.5 |
| 20260510100401 | 20 | 46 | 9.7 | 12.9 | 0.00 | 4.47 | 0.00 | 99 | 1012.5 |
| 20260510095902 | 20 | 43 | 9.7 | 12.9 | 0.00 | 4.47 | 0.00 | 99 | 1012.4 |
| 20260510095401 | 20 | 42 | 8.0 | 11.3 | 0.00 | 4.47 | 0.00 | 99 | 1012.4 |
| 20260510094902 | 20 | 46 | 6.4 | 12.9 | 0.00 | 4.47 | 0.00 | 99 | 1012.5 |
| 20260510094620 | 20 | 41 | 8.0 | 14.5 | 0.00 | 4.47 | 0.00 | 99 | 1012.5 |
| 20260510093902 | 20 | 55 | 8.0 | 14.5 | 0.00 | 4.47 | 0.00 | 99 | 1012.5 |
| 20260510093620 | 20 | 49 | 9.7 | 14.5 | 0.00 | 4.47 | 0.00 | 99 | 1012.5 |
| 20260510092901 | 20 | 49 | 9.7 | 14.5 | 0.00 | 4.47 | 0.00 | 99 | 1012.5 |
| 20260510092622 | 20 | 41 | 9.7 | 12.9 | 0.00 | 4.47 | 0.00 | 99 | 1012.4 |
| 20260510091901 | 20 | 49 | 9.7 | 14.5 | 0.00 | 4.47 | 0.00 | 99 | 1012.3 |
| 20260510091356 | 20 | 44 | 9.7 | 14.5 | 0.00 | 4.47 | 0.00 | 99 | 1012.2 |
| 20260510090850 | 20 | 44 | 9.7 | 12.9 | 0.00 | 4.47 | 0.00 | 99 | 1012.2 |
| 20260510090343 | 20 | 49 | 9.7 | 12.9 | 0.00 | 4.47 | 0.00 | 99 | 1012.2 |
| 20260510085838 | 20 | 36 | 9.7 | 14.5 | 0.00 | 4.47 | 0.00 | 99 | 1012.2 |
| 20260510085338 | 20 | 40 | 11.3 | 14.5 | 0.00 | 4.47 | 0.00 | 99 | 1012.2 |
| 20260510084838 | 20 | 42 | 11.3 | 14.5 | 0.00 | 4.47 | 0.00 | 99 | 1012.3 |
| 20260510084338 | 20 | 42 | 11.3 | 14.5 | 0.00 | 4.47 | 0.00 | 99 | 1012.2 |
| 20260510083838 | 20 | 39 | 11.3 | 14.5 | 0.00 | 4.47 | 0.00 | 99 | 1012.3 |
| 20260510083338 | 20 | 39 | 11.3 | 14.5 | 0.00 | 4.47 | 0.00 | 99 | 1012.3 |
| 20260510082838 | 20 | 37 | 11.3 | 14.5 | 0.00 | 4.47 | 0.00 | 99 | 1012.2 |
| 20260510082559 | 20 | 44 | 9.7 | 12.9 | 0.00 | 4.47 | 0.00 | 99 | 1012.3 |
| 20260510081838 | 19 | 37 | 9.7 | 12.9 | 0.00 | 4.47 | 0.00 | 99 | 1012.3 |
| 20260510081339 | 19 | 36 | 11.3 | 12.9 | 0.00 | 4.47 | 0.00 | 99 | 1012.1 |
| 20260510081057 | 19 | 38 | 9.7 | 12.9 | 0.00 | 4.47 | 0.00 | 99 | 1012.0 |
| 20260510080338 | 19 | 32 | 9.7 | 12.9 | 0.00 | 4.47 | 0.00 | 99 | 1012.0 |
| 20260510075838 | 19 | 38 | 9.7 | 12.9 | 0.00 | 4.47 | 0.00 | 99 | 1012.0 |
| 20260510075819 | 19 | 35 | 9.7 | 11.3 | 0.00 | 4.47 | 0.00 | 99 | 1012.0 |
| 20260510074833 | 19 | 33 | 9.7 | 9.7 | 0.00 | 4.47 | 0.00 | 99 | 1012.0 |
| 20260510074333 | 19 | 27 | 9.7 | 9.7 | 0.00 | 4.47 | 0.00 | 99 | 1012.0 |
| 20260510073833 | 19 | 31 | 8.0 | 9.7 | 0.00 | 4.47 | 0.00 | 99 | 1012.0 |
| 20260510073333 | 19 | 30 | 8.0 | 9.7 | 0.00 | 4.47 | 0.00 | 99 | 1011.9 |
| 20260510072833 | 19 | 28 | 8.0 | 9.7 | 0.00 | 4.47 | 0.00 | 99 | 1011.8 |
| 20260510072333 | 19 | 41 | 8.0 | 11.3 | 0.00 | 4.47 | 0.00 | 99 | 1011.7 |
| 20260510071833 | 19 | 31 | 8.0 | 11.3 | 0.00 | 4.47 | 0.00 | 99 | 1011.7 |
| 20260510071333 | 19 | 32 | 8.0 | 9.7 | 0.00 | 4.47 | 0.00 | 99 | 1011.6 |
| 20260510070834 | 19 | 55 | 8.0 | 9.7 | 0.00 | 4.47 | 0.00 | 99 | 1011.5 |
| 20260510070333 | 19 | 36 | 9.7 | 11.3 | 0.00 | 4.47 | 0.00 | 99 | 1011.7 |
| 20260510065833 | 19 | 44 | 9.7 | 11.3 | 0.00 | 4.47 | 0.00 | 99 | 1011.8 |
| 20260510065556 | 19 | 26 | 9.7 | 11.3 | 0.00 | 4.47 | 0.00 | 99 | 1011.9 |
| 20260510064834 | 19 | 32 | 8.0 | 11.3 | 0.00 | 4.47 | 0.00 | 99 | 1011.9 |
| 20260510064550 | 19 | 36 | 8.0 | 11.3 | 0.00 | 4.47 | 0.00 | 99 | 1011.9 |
| 20260510063832 | 19 | 32 | 9.7 | 11.3 | 0.00 | 4.47 | 0.00 | 99 | 1011.9 |
| 20260510063551 | 19 | 27 | 8.0 | 11.3 | 0.00 | 4.47 | 0.00 | 99 | 1011.9 |
| 20260510062832 | 19 | 42 | 9.7 | 12.9 | 0.00 | 4.47 | 0.00 | 99 | 1011.7 |
| 20260510062332 | 19 | 35 | 9.7 | 12.9 | 0.00 | 4.47 | 0.00 | 99 | 1011.8 |
| 20260510061832 | 19 | 27 | 9.7 | 14.5 | 0.00 | 4.47 | 0.00 | 99 | 1011.8 |
| 20260510061332 | 19 | 44 | 11.3 | 14.5 | 0.00 | 4.47 | 0.00 | 99 | 1011.9 |
| 20260510060832 | 19 | 32 | 11.3 | 14.5 | 0.00 | 4.47 | 0.00 | 99 | 1012.0 |
| 20260510060814 | 20 | 32 | 9.7 | 12.9 | 0.00 | 4.47 | 0.00 | 99 | 1012.0 |
| 20260510055831 | 20 | 34 | 8.0 | 9.7 | 0.00 | 4.47 | 0.00 | 99 | 1011.9 |
| 20260510055331 | 20 | 30 | 6.4 | 9.7 | 0.00 | 4.47 | 0.00 | 99 | 1011.9 |
| 20260510054831 | 20 | 39 | 8.0 | 11.3 | 0.00 | 4.47 | 0.00 | 99 | 1011.9 |
| 20260510054332 | 20 | 30 | 9.7 | 12.9 | 0.00 | 4.47 | 0.00 | 99 | 1012.0 |
| 20260510053832 | 20 | 26 | 9.7 | 12.9 | 0.00 | 4.47 | 0.00 | 99 | 1011.9 |
| 20260510053331 | 20 | 34 | 6.4 | 9.7 | 0.00 | 4.47 | 0.00 | 99 | 1011.6 |
| 20260510052831 | 20 | 56 | 8.0 | 11.3 | 0.00 | 4.47 | 0.00 | 99 | 1011.6 |
| 20260510052550 | 20 | 36 | 8.0 | 11.3 | 0.00 | 4.47 | 0.00 | 99 | 1011.8 |
| 20260510051831 | 20 | 42 | 6.4 | 9.7 | 0.00 | 4.47 | 0.00 | 99 | 1011.7 |
| 20260510051331 | 20 | 58 | 6.4 | 9.7 | 0.00 | 4.47 | 0.00 | 99 | 1011.7 |
| 20260510050831 | 20 | 54 | 4.8 | 8.0 | 0.00 | 4.47 | 0.00 | 99 | 1011.7 |
| 20260510050331 | 20 | 60 | 4.8 | 8.0 | 0.00 | 4.47 | 0.00 | 99 | 1011.7 |
| 20260510045831 | 20 | 65 | 4.8 | 9.7 | 0.00 | 4.47 | 4.47 | 99 | 1011.8 |
| 20260510045331 | 20 | 60 | 6.4 | 9.7 | 0.00 | 4.47 | 4.47 | 99 | 1011.9 |
| 20260510045056 | 20 | 48 | 6.4 | 9.7 | 0.00 | 4.47 | 4.47 | 99 | 1011.9 |
| 20260510044331 | 20 | 48 | 6.4 | 9.7 | 0.00 | 4.47 | 4.47 | 99 | 1011.8 |
| 20260510043832 | 20 | 59 | 6.4 | 9.7 | 0.00 | 4.47 | 4.47 | 99 | 1011.8 |
| 20260510043324 | 20 | 54 | 6.4 | 9.7 | 0.00 | 4.47 | 4.47 | 99 | 1012.1 |
| 20260510042823 | 20 | 42 | 6.4 | 11.3 | 0.00 | 4.47 | 4.47 | 99 | 1012.1 |
| 20260510042804 | 20 | 40 | 6.4 | 11.3 | 0.00 | 4.47 | 4.47 | 99 | 1012.2 |
| 20260510041824 | 20 | 44 | 6.4 | 9.7 | 0.00 | 4.47 | 4.47 | 99 | 1012.2 |
| 20260510041324 | 20 | 53 | 6.4 | 11.3 | 0.00 | 4.47 | 4.47 | 99 | 1012.0 |
| 20260510041042 | 20 | 49 | 6.4 | 11.3 | 0.00 | 4.47 | 4.47 | 99 | 1011.9 |
| 20260510040536 | 20 | 54 | 4.8 | 12.9 | 0.00 | 4.47 | 4.47 | 99 | 1011.9 |
| 20260510035812 | 20 | 54 | 6.4 | 14.5 | 0.00 | 4.47 | 4.47 | 99 | 1011.8 |
| 20260510035306 | 20 | 186 | 8.0 | 14.5 | 0.00 | 4.47 | 4.47 | 99 | 1011.8 |
| 20260510034805 | 20 | 177 | 6.4 | 14.5 | 0.00 | 4.47 | 4.47 | 99 | 1012.0 |
| 20260510034306 | 20 | 179 | 8.0 | 14.5 | 0.00 | 4.47 | 4.47 | 99 | 1012.3 |
| 20260510034024 | 20 | 175 | 6.4 | 12.9 | 0.00 | 4.47 | 4.47 | 99 | 1012.4 |
| 20260510033306 | 20 | 173 | 6.4 | 12.9 | 0.00 | 4.47 | 4.47 | 99 | 1012.5 |
| 20260510032806 | 20 | 178 | 4.8 | 8.0 | 0.00 | 4.47 | 4.47 | 99 | 1012.6 |
| 20260510032535 | 20 | 178 | 4.8 | 8.0 | 0.00 | 4.47 | 4.47 | 99 | 1012.7 |
| 20260510031806 | 20 | 177 | 4.8 | 8.0 | 0.00 | 4.47 | 4.47 | 99 | 1012.7 |
| 20260510031529 | 20 | 176 | 6.4 | 8.0 | 0.00 | 4.47 | 4.47 | 99 | 1012.7 |
| 20260510030807 | 20 | 177 | 6.4 | 8.0 | 0.00 | 4.47 | 4.47 | 99 | 1012.8 |
| 20260510030306 | 20 | 178 | 4.8 | 8.0 | 0.00 | 4.47 | 4.47 | 99 | 1012.8 |
| 20260510025807 | 20 | 180 | 4.8 | 6.4 | 0.00 | 4.47 | 4.47 | 99 | 1012.7 |
| 20260510025307 | 20 | 177 | 4.8 | 8.0 | 0.00 | 4.47 | 4.47 | 99 | 1012.8 |
| 20260510024806 | 20 | 178 | 4.8 | 8.0 | 0.00 | 4.47 | 4.47 | 99 | 1012.8 |
| 20260510024306 | 20 | 177 | 4.8 | 8.0 | 0.00 | 4.47 | 4.47 | 99 | 1012.9 |
| 20260510023807 | 20 | 177 | 4.8 | 6.4 | 0.00 | 4.47 | 4.47 | 99 | 1012.7 |
| 20260510023532 | 20 | 176 | 4.8 | 6.4 | 0.00 | 4.47 | 4.47 | 99 | 1012.6 |
| 20260510022804 | 20 | 177 | 4.8 | 6.4 | 0.00 | 4.47 | 4.47 | 99 | 1012.4 |
| 20260510022306 | 20 | 176 | 4.8 | 6.4 | 0.00 | 4.47 | 4.47 | 99 | 1012.4 |
| 20260510021803 | 20 | 177 | 4.8 | 8.0 | 0.00 | 4.47 | 4.47 | 99 | 1012.3 |
| 20260510021255 | 20 | 177 | 6.4 | 9.7 | 0.00 | 4.47 | 4.47 | 99 | 1012.2 |
| 20260510020755 | 20 | 176 | 6.4 | 9.7 | 0.00 | 4.47 | 4.47 | 99 | 1012.1 |
| 20260510020252 | 20 | 178 | 4.8 | 8.0 | 0.00 | 4.47 | 4.47 | 99 | 1012.1 |
| 20260510015752 | 20 | 177 | 4.8 | 6.4 | 0.00 | 4.47 | 4.47 | 99 | 1012.2 |
| 20260510015252 | 20 | 178 | 4.8 | 8.0 | 0.00 | 4.47 | 4.47 | 99 | 1012.1 |
| 20260510014743 | 20 | 177 | 4.8 | 8.0 | 0.00 | 4.50 | 4.47 | 99 | 1012.2 |
| 20260510014237 | 20 | 177 | 4.8 | 8.0 | 0.00 | 4.52 | 4.47 | 99 | 1012.0 |
| 20260510013738 | 20 | 176 | 6.4 | 8.0 | 0.00 | 4.52 | 4.47 | 99 | 1012.1 |
| 20260510013501 | 20 | 177 | 6.4 | 11.3 | 0.00 | 4.52 | 4.47 | 99 | 1011.9 |
| 20260510012738 | 20 | 175 | 6.4 | 11.3 | 0.00 | 4.52 | 4.47 | 99 | 1011.8 |
| 20260510012500 | 20 | 177 | 6.4 | 11.3 | 0.00 | 4.52 | 4.47 | 99 | 1011.7 |
| 20260510011958 | 20 | 176 | 6.4 | 11.3 | 0.00 | 4.52 | 4.47 | 99 | 1011.7 |
| 20260510011235 | 20 | 176 | 6.4 | 9.7 | 0.00 | 4.52 | 4.47 | 99 | 1011.7 |
| 20260510010736 | 20 | 174 | 6.4 | 9.7 | 0.00 | 4.52 | 4.47 | 99 | 1011.6 |
| 20260510010232 | 20 | 176 | 6.4 | 11.3 | 0.00 | 4.52 | 4.47 | 99 | 1011.7 |
| 20260510005732 | 20 | 174 | 8.0 | 14.5 | 0.00 | 4.52 | 4.47 | 99 | 1011.7 |
| 20260510005232 | 20 | 177 | 8.0 | 14.5 | 0.00 | 4.52 | 4.47 | 99 | 1011.7 |
| 20260510004731 | 20 | 173 | 6.4 | 11.3 | 0.00 | 4.52 | 4.47 | 99 | 1011.7 |
| 20260510004232 | 20 | 177 | 6.4 | 12.9 | 0.00 | 4.52 | 4.47 | 99 | 1011.7 |
| 20260510003732 | 20 | 170 | 6.4 | 12.9 | 0.00 | 4.52 | 4.47 | 99 | 1011.7 |
| 20260510003232 | 20 | 175 | 6.4 | 12.9 | 0.00 | 4.52 | 4.47 | 99 | 1011.7 |
| 20260510002732 | 20 | 175 | 6.4 | 11.3 | 0.00 | 4.52 | 4.47 | 99 | 1011.5 |
| 20260510002233 | 20 | 176 | 4.8 | 9.7 | 0.00 | 4.52 | 4.47 | 99 | 1011.6 |
| 20260510001731 | 20 | 177 | 4.8 | 6.4 | 0.05 | 4.52 | 4.47 | 99 | 1011.7 |
| 20260510001231 | 20 | 175 | 4.8 | 9.7 | 0.05 | 4.52 | 4.47 | 99 | 1011.6 |
| 20260510000731 | 20 | 177 | 4.8 | 9.7 | 0.08 | 4.52 | 4.47 | 99 | 1011.8 |
| 20260510000233 | 20 | 178 | 6.4 | 9.7 | 0.10 | 4.52 | 4.47 | 99 | 1011.6 |
| 20260509235726 | 20 | 174 | 6.4 | 11.3 | 0.15 | 4.52 | 4.47 | 99 | 1011.6 |
| 20260509235227 | 20 | 149 | 6.4 | 11.3 | 0.18 | 4.52 | 4.47 | 99 | 1011.7 |
| 20260509234727 | 20 | 176 | 6.4 | 11.3 | 0.18 | 4.52 | 4.47 | 99 | 1011.8 |
| 20260509234226 | 20 | 176 | 6.4 | 9.7 | 0.18 | 4.52 | 4.47 | 99 | 1011.6 |
| 20260509233726 | 20 | 175 | 6.4 | 9.7 | 0.18 | 4.52 | 4.47 | 99 | 1011.6 |
| 20260509233221 | 20 | 176 | 8.0 | 11.3 | 0.18 | 4.52 | 4.47 | 99 | 1011.6 |
| 20260509232721 | 20 | 167 | 8.0 | 11.3 | 0.18 | 4.52 | 4.47 | 99 | 1011.5 |
| 20260509232221 | 20 | 173 | 6.4 | 9.7 | 0.18 | 4.50 | 4.47 | 99 | 1011.5 |
| 20260509231944 | 20 | 150 | 6.4 | 9.7 | 0.15 | 4.47 | 4.45 | 99 | 1011.9 |
| 20260509231444 | 20 | 177 | 6.4 | 11.3 | 0.13 | 4.45 | 4.42 | 99 | 1011.9 |
| 20260509230942 | 20 | 167 | 6.4 | 11.3 | 0.10 | 4.42 | 4.39 | 99 | 1011.7 |
| 20260509230221 | 20 | 176 | 4.8 | 9.7 | 0.08 | 4.42 | 4.37 | 99 | 1011.8 |
| 20260509225721 | 20 | 178 | 6.4 | 12.9 | 0.05 | 4.37 | 4.34 | 99 | 1011.7 |
| 20260509225707 | 20 | 148 | 6.4 | 29.0 | 0.00 | 4.34 | 4.32 | 99 | 1011.8 |
| 20260509224721 | 21 | 175 | 9.7 | 29.0 | 0.00 | 4.32 | 4.29 | 100 | 1011.8 |
| 20260509224447 | 20 | 198 | 12.9 | 30.6 | 0.05 | 4.32 | 4.29 | 100 | 1011.5 |
| 20260509223719 | 20 | 252 | 14.5 | 48.3 | 0.05 | 4.32 | 4.29 | 100 | 1011.5 |
| 20260509223215 | 21 | 238 | 17.7 | 48.3 | 0.05 | 4.32 | 4.29 | 100 | 1011.4 |
| 20260509222716 | 21 | 254 | 17.7 | 48.3 | 0.05 | 4.34 | 4.29 | 100 | 1011.3 |
| 20260509222216 | 21 | 251 | 17.7 | 45.1 | 0.05 | 4.34 | 4.29 | 100 | 1011.2 |
| 20260509221716 | 21 | 247 | 17.7 | 45.1 | 0.05 | 4.34 | 4.29 | 100 | 1010.9 |
| 20260509221215 | 21 | 244 | 16.1 | 35.4 | 0.05 | 4.37 | 4.29 | 100 | 1010.8 |
| 20260509220716 | 21 | 260 | 16.1 | 37.0 | 0.05 | 4.37 | 4.29 | 100 | 1010.7 |
| 20260509220216 | 21 | 253 | 17.7 | 40.2 | 0.05 | 4.37 | 4.29 | 100 | 1010.9 |
| 20260509215716 | 21 | 248 | 16.1 | 40.2 | 0.05 | 4.37 | 4.29 | 100 | 1011.1 |
| 20260509215217 | 20 | 240 | 16.1 | 38.6 | 0.05 | 4.37 | 4.29 | 100 | 1011.3 |
| 20260509214938 | 20 | 270 | 17.7 | 41.8 | 0.05 | 4.34 | 4.29 | 100 | 1011.3 |
| 20260509214217 | 20 | 262 | 17.7 | 45.1 | 0.00 | 4.32 | 4.27 | 99 | 1011.4 |
| 20260509213717 | 20 | 251 | 17.7 | 45.1 | 0.00 | 4.32 | 4.27 | 99 | 1011.6 |
| 20260509213216 | 20 | 235 | 19.3 | 45.1 | 0.00 | 4.32 | 4.24 | 99 | 1011.5 |
| 20260509212714 | 20 | 256 | 17.7 | 45.1 | 0.00 | 4.32 | 4.24 | 99 | 1011.2 |
| 20260509212214 | 20 | 260 | 16.1 | 45.1 | 0.00 | 4.32 | 4.24 | 98 | 1010.9 |
| 20260509211714 | 20 | 250 | 14.5 | 43.5 | 0.00 | 4.34 | 4.24 | 98 | 1010.8 |
| 20260509211214 | 20 | 250 | 14.5 | 43.5 | 0.00 | 4.37 | 4.24 | 98 | 1010.7 |
| 20260509210714 | 20 | 250 | 12.9 | 22.5 | 0.00 | 4.42 | 4.24 | 99 | 1010.6 |
| 20260509210214 | 20 | 247 | 14.5 | 33.8 | 0.00 | 4.47 | 4.24 | 99 | 1010.7 |
| 20260509205714 | 20 | 251 | 14.5 | 33.8 | 0.03 | 4.55 | 4.24 | 99 | 1010.7 |
| 20260509205215 | 20 | 260 | 14.5 | 37.0 | 0.05 | 4.65 | 4.24 | 100 | 1010.5 |
| 20260509204714 | 20 | 259 | 17.7 | 53.1 | 0.10 | 4.85 | 4.24 | 100 | 1010.5 |
| 20260509204433 | 20 | 269 | 25.7 | 59.5 | 0.13 | 5.13 | 4.24 | 100 | 1010.7 |
| 20260509203714 | 20 | 103 | 32.2 | 59.5 | 0.15 | 5.49 | 4.24 | 100 | 1010.8 |
| 20260509203215 | 20 | 87 | 33.8 | 66.0 | 0.20 | 5.84 | 4.24 | 100 | 1010.7 |
| 20260509202715 | 20 | 78 | 33.8 | 66.0 | 0.23 | 6.27 | 4.24 | 100 | 1010.9 |
| 20260509202211 | 20 | 70 | 32.2 | 61.2 | 0.23 | 6.55 | 4.24 | 99 | 1011.1 |
| 20260509201712 | 20 | 204 | 35.4 | 61.2 | 0.25 | 6.65 | 4.24 | 99 | 1011.2 |
| 20260509201212 | 20 | 96 | 33.8 | 61.2 | 0.28 | 6.65 | 4.24 | 99 | 1011.4 |
| 20260509200712 | 20 | 94 | 32.2 | 61.2 | 0.30 | 6.65 | 4.24 | 99 | 1011.7 |
| 20260509200212 | 20 | 91 | 32.2 | 64.4 | 0.33 | 6.65 | 4.24 | 99 | 1012.0 |
| 20260509195712 | 20 | 98 | 30.6 | 64.4 | 0.36 | 6.63 | 4.24 | 99 | 1012.1 |
| 20260509195212 | 20 | 103 | 30.6 | 64.4 | 0.36 | 6.60 | 4.19 | 99 | 1011.9 |
| 20260509194712 | 20 | 90 | 32.2 | 66.0 | 0.33 | 6.55 | 4.14 | 99 | 1011.9 |
| 20260509194212 | 20 | 107 | 33.8 | 66.0 | 0.30 | 6.53 | 4.11 | 99 | 1011.9 |
| 20260509193712 | 19 | 93 | 33.8 | 57.9 | 0.28 | 6.50 | 4.09 | 99 | 1012.0 |
| 20260509193212 | 19 | 97 | 33.8 | 59.5 | 0.28 | 6.45 | 4.04 | 99 | 1011.9 |
| 20260509192713 | 19 | 111 | 33.8 | 59.5 | 0.25 | 6.45 | 4.04 | 99 | 1012.0 |
| 20260509192432 | 19 | 105 | 32.2 | 59.5 | 0.25 | 6.43 | 4.01 | 99 | 1012.1 |
| 20260509191713 | 19 | 91 | 27.4 | 57.9 | 0.23 | 6.40 | 3.99 | 99 | 1012.3 |
| 20260509191431 | 19 | 114 | 27.4 | 66.0 | 0.23 | 6.40 | 3.99 | 99 | 1012.6 |
| 20260509191154 | 19 | 226 | 27.4 | 66.0 | 0.20 | 6.35 | 3.94 | 99 | 1012.7 |
| 20260509190210 | 19 | 125 | 29.0 | 61.2 | 0.18 | 6.30 | 3.91 | 99 | 1012.7 |
| 20260509185710 | 19 | 83 | 32.2 | 61.2 | 0.15 | 6.27 | 3.86 | 99 | 1012.6 |
| 20260509185207 | 19 | 203 | 32.2 | 59.5 | 0.15 | 6.25 | 3.86 | 99 | 1012.4 |
| 20260509184706 | 19 | 108 | 29.0 | 59.5 | 0.15 | 6.22 | 3.81 | 99 | 1012.3 |
| 20260509184207 | 19 | 82 | 29.0 | 57.9 | 0.15 | 6.22 | 3.81 | 99 | 1012.0 |
| 20260509183707 | 19 | 103 | 32.2 | 64.4 | 0.15 | 6.20 | 3.81 | 99 | 1012.2 |
| 20260509183207 | 19 | 104 | 32.2 | 64.4 | 0.13 | 6.20 | 3.78 | 99 | 1012.1 |
| 20260509182708 | 19 | 102 | 30.6 | 61.2 | 0.13 | 6.17 | 3.76 | 99 | 1011.9 |
| 20260509182207 | 19 | 139 | 30.6 | 62.8 | 0.13 | 6.17 | 3.76 | 99 | 1012.4 |
| 20260509181707 | 19 | 104 | 33.8 | 62.8 | 0.13 | 6.17 | 3.76 | 99 | 1012.6 |
| 20260509181433 | 19 | 90 | 33.8 | 62.8 | 0.13 | 6.15 | 3.73 | 99 | 1012.3 |
| 20260509180708 | 19 | 100 | 33.8 | 72.4 | 0.15 | 6.15 | 3.73 | 99 | 1012.3 |
| 20260509180207 | 19 | 104 | 32.2 | 72.4 | 0.20 | 6.12 | 3.71 | 99 | 1012.3 |
| 20260509175708 | 19 | 117 | 32.2 | 57.9 | 0.30 | 6.12 | 3.71 | 99 | 1012.2 |
| 20260509175205 | 19 | 98 | 33.8 | 64.4 | 0.33 | 6.10 | 3.68 | 99 | 1012.2 |
| 20260509174704 | 19 | 86 | 32.2 | 64.4 | 0.36 | 6.07 | 3.66 | 99 | 1012.2 |
| 20260509174204 | 19 | 91 | 32.2 | 66.0 | 0.43 | 6.07 | 3.66 | 99 | 1012.3 |
| 20260509173703 | 19 | 96 | 33.8 | 66.0 | 0.64 | 6.07 | 3.66 | 99 | 1012.1 |
| 20260509173203 | 18 | 93 | 30.6 | 57.9 | 0.91 | 6.07 | 3.66 | 99 | 1012.2 |
| 20260509172703 | 18 | 114 | 29.0 | 56.3 | 1.04 | 6.05 | 3.63 | 99 | 1012.4 |
| 20260509172428 | 18 | 101 | 25.7 | 56.3 | 1.09 | 6.05 | 3.63 | 99 | 1012.5 |
| 20260509171704 | 18 | 109 | 25.7 | 53.1 | 1.09 | 6.05 | 3.63 | 99 | 1012.9 |
| 20260509171426 | 18 | 111 | 25.7 | 53.1 | 1.12 | 6.02 | 3.61 | 99 | 1012.9 |
| 20260509170703 | 18 | 119 | 29.0 | 62.8 | 1.17 | 5.99 | 3.58 | 99 | 1012.7 |
| 20260509170203 | 18 | 100 | 30.6 | 62.8 | 1.19 | 5.92 | 3.53 | 99 | 1012.8 |
| 20260509165704 | 18 | 108 | 27.4 | 61.2 | 1.22 | 5.82 | 3.40 | 99 | 1012.9 |
| 20260509165204 | 18 | 106 | 20.9 | 61.2 | 1.24 | 5.79 | 3.38 | 99 | 1012.9 |
| 20260509164703 | 18 | 102 | 14.5 | 54.7 | 1.30 | 5.74 | 3.33 | 99 | 1012.8 |
| 20260509164203 | 18 | 123 | 14.5 | 54.7 | 1.35 | 5.64 | 3.23 | 99 | 1012.8 |
| 20260509163703 | 18 | 112 | 12.9 | 48.3 | 1.22 | 5.44 | 3.02 | 99 | 1012.8 |
| 20260509163204 | 18 | 87 | 11.3 | 48.3 | 0.99 | 5.16 | 2.74 | 99 | 1013.3 |
| 20260509162703 | 18 | 226 | 11.3 | 19.3 | 0.94 | 5.00 | 2.59 | 99 | 1013.2 |
| 20260509162203 | 18 | 206 | 11.3 | 17.7 | 0.89 | 4.95 | 2.54 | 99 | 1013.1 |
| 20260509161703 | 18 | 79 | 12.9 | 17.7 | 0.89 | 4.93 | 2.54 | 99 | 1013.0 |
| 20260509161202 | 18 | 75 | 12.9 | 17.7 | 0.84 | 4.90 | 2.49 | 99 | 1013.0 |
| 20260509160703 | 18 | 59 | 12.9 | 17.7 | 0.76 | 4.83 | 2.41 | 99 | 1013.0 |
| 20260509160203 | 19 | 66 | 12.9 | 30.6 | 0.66 | 4.72 | 2.31 | 99 | 1013.3 |
| 20260509155703 | 19 | 64 | 12.9 | 33.8 | 0.53 | 4.60 | 2.18 | 99 | 1013.3 |
| 20260509155204 | 19 | 57 | 14.5 | 33.8 | 0.48 | 4.55 | 2.13 | 100 | 1013.0 |
| 20260509154923 | 19 | 228 | 12.9 | 30.6 | 0.38 | 4.45 | 2.03 | 100 | 1012.8 |
| 20260509154623 | 19 | 54 | 11.3 | 19.3 | 0.23 | 4.29 | 1.88 | 99 | 1013.1 |